FENGYUN 1C DEB

Satellite information

Favourite Embed

Satellite Type and Status

DEBRISIN ORBIT

Key statistics

Satellite FENGYUN 1C DEB at a glance.

Uptime

9619

Days in orbit

Revolutions

≈ 14.3

Per day

Orbit

SSO

Sun Synchronous Orbit

Inclination

98.6

Latest

Satellite identification and parameters

Extended collection of information and parameters for FENGYUN 1C DEB.

Object identification

Identified? True

Debris? True

Object name: FENGYUN 1C DEB

International designator: 1999-025EDB

Object number (NORAD): 37019

Object ID (CCSDS): 37019

Country: PEOPLES REPUBLIC OF CHINA (PRC)

Current information (Y/N): Y

RCS size: SMALL

Orbital parameters

Period: 100.874 minutes

Inclination: 98.6079 deg

SMA: 7178.173 km

Apoapsis: 936.771 km

Periapsis: 663.305 km

RAAN: 124.4843 deg

Eccentricy: 0.0190484

Argument of periapsis: 147.243 deg

Mean anomaly: 214.0732 deg

Mean motion: 14.27518967 rev/day

Mean motion (dot): 0.00004633 rev/day2

B* drag term: 0.0015685 1/REarth

Two-line elements (TLE)

Creation date: Feb. 10, 2024, 5:18 p.m.

Reference frame: TEME

Reference center: EARTH

Epoch: Feb. 9, 2024, 10:44 a.m. UTC

TLE line 0: 0 FENGYUN 1C DEB

TLE line 1: 1 37019U 99025EDB 24040.44732576 .00004633 00000-0 15685-2 0 9996

TLE line 2: 2 37019 98.6079 124.4843 0190484 147.2430 214.0732 14.27518967551420

Live tracking on map

Real-time ground track for satellite FENGYUN 1C DEB.

In-orbit conjunctions

A list of the most updated potential collisions computed for object FENGYUN 1C DEB.

Target Orbit TCA Probability of collision Miss distance Type
COSMOS 2251 DEB LEO 2024-09-26 23:27:45 0.0001411256 864.0 (m) DEBRIS

Associated space launch

Chinese polar orbiting meteorological satellite

FENGYUN 1C DEB was lifted into orbit during the mission ‘Long March 4B | Feng Yun 1C’, on board a Long March 4B space rocket.

The launch took place on May 10, 1999, 1:33 a.m. from Launch Complex 7.

For more information about the launch, click the button.

Launch to space Long March 4B | Feng Yun 1C
Long March 4B | Feng Yun 1C

Agency: N/A

Status: Launch Successful

Launch date: May 10, 1999, 1:33 a.m. UTC

Rocket: Long March 4B

Launch pad: Launch Complex 7

Location: Taiyuan Satellite Launch Center, People's Republic of China

...

Latest news about this satellite

There are no fresh news available about this satellite. Check back as we update our databases every day.


Newsletter sign-up

Weekly statistics, charts and insights to help you stay on top of the space industry.